Terug naar catalogus

STARLINK-33883

ActiefCommunicatieVLEO
NORAD 63781·PAYLOAD·🇺🇸 United States

Gelanceerd May 2, 2025 vanaf Cape Canaveral Space Force Station

Loading…

Volgende Passages (komende 24 uur)

TLE

VersSource: CelesTrak SupGP

Epoch: Sep 15, 2026, 02:59 UTC

1 63781C 25091G   26258.12479167 -.00028337  00000+0 -10262-2 0  2587
2 63781  43.0009  62.9010 0001706 268.2650  12.8062 15.27597993    11

Volg STARLINK-33883 in realtime met AllMySat

Download on the App Store